OneWeb SL0198

operational
NORAD ID: 48216 Int'l Des: 2021-031 Owner: ONEWEBN Country: UK Constellation: oneweb
LEOCIRCULARPOLARONEWEB_TYPE

关于 OneWeb SL0198

正在加载描述...

实时位置

正在加载3D地球...

即将过境

高度历史

Altitude vs Time

uPlot chart will show altitude changes over time

两行轨道根数

1 48216U 21031G 25350.92459929 .00000312 00000-0 80605-3 0 9990
2 48216 87.8993 326.0335 0001470 71.7914 288.3376 13.14504467224549
Epoch: Dec 16, 2025 • Age: 7 hours

当前状态

高度 1234.9 km
速度 7.24 km/s
星下点 -79.46°S, 152.19°E
发射日期 Apr 25, 2021
运行时间 4.6 years
类型 internet

技术详情

分类 Payload
质量 148.00 kg
干质量 140.00 kg
总质量 148.00 kg
长度 1.30 m
直径 1.00 m
跨度 5.00 m
形状 Trapezoid+2 pan
制造商 ONEWUS
平台类型 ARROW
阶段状态 In Orbit
所有者/国家 ONEWEBN/UK

大型星座

Loading constellations...